Location: Unspecified
(0.0000°N, 0.0000°E)
Time: 11:04:06
(UTC+00:00)

Explorer 11/Cluster Stage 4 - Pass Details

Date: 04 October 2020
Orbit: 467 x 1258 km, 28.8° (Epoch: 28 October)

Event Time Altitude Azimuth Distance (km) Brightness Sun altitude
Rises 03:36:23 0° 328° (NNW) 3,609 - -33.0°
Reaches altitude 10° 03:39:45 10° 346° (NNW) 2,809 - -32.1°
Exits shadow 03:41:45 16° 1° (N) 2,493 9.1 -31.6°
Maximum altitude 03:44:33 19° 29° (NNE) 2,366 9.2 -30.9°
Drops below altitude 10° 03:49:49 10° 71° (ENE) 3,129 10.4 -29.6°
Sets 03:53:48 0° 87° (E) 4,164 11.5 -28.6°
